TimeEST,TemperatureF,Dew PointF,Humidity,Sea Level PressureIn,VisibilityMPH,Wind Direction,Wind SpeedMPH,Gust SpeedMPH,PrecipitationIn,Events,Conditions,WindDirDegrees,DateUTC
12:53 AM,68.0,48.9,50,29.73,10.0,South,15.0,28.8,N/A,,Mostly Cloudy,180,2014-02-21 05:53:00
1:53 AM,68.0,48.9,50,29.68,10.0,South,12.7,-,N/A,,Overcast,180,2014-02-21 06:53:00
2:53 AM,68.0,46.9,47,29.66,10.0,South,13.8,-,N/A,,Overcast,190,2014-02-21 07:53:00
3:37 AM,68.0,48.9,50,29.75,10.0,SSW,20.7,26.5,0.00,Rain-Thunderstorm,Light Thunderstorms and Rain,210,2014-02-21 08:37:00
3:45 AM,59.0,52.0,78,29.78,2.5,WSW,34.5,46.0,0.00,Rain-Thunderstorm,Heavy Thunderstorms and Rain,250,2014-02-21 08:45:00
3:53 AM,59.0,52.0,78,29.70,3.0,WSW,17.3,46.0,0.06,Rain-Thunderstorm,Thunderstorms and Rain,250,2014-02-21 08:53:00
4:21 AM,57.9,52.0,81,29.78,6.0,WSW,17.3,24.2,N/A,Rain,Rain,250,2014-02-21 09:21:00
4:53 AM,57.0,52.0,83,29.73,4.0,SW,24.2,33.4,0.13,Rain,Rain,230,2014-02-21 09:53:00
5:53 AM,55.9,52.0,87,29.70,4.0,SW,12.7,-,0.12,Rain,Rain,230,2014-02-21 10:53:00
6:15 AM,55.9,52.0,87,29.79,4.0,WSW,12.7,-,0.06,Rain,Rain,240,2014-02-21 11:15:00
6:47 AM,51.8,48.2,88,29.79,3.0,Variable,4.6,-,0.16,Rain,Heavy Rain,0,2014-02-21 11:47:00
6:53 AM,51.1,48.9,92,29.71,2.5,Variable,3.5,-,0.21,Rain,Heavy Rain,0,2014-02-21 11:53:00
6:57 AM,52.0,48.0,86,29.78,3.0,Variable,3.5,-,0.00,Rain,Light Rain,0,2014-02-21 11:57:00
7:12 AM,50.0,46.0,86,29.84,10.0,WNW,24.2,28.8,0.01,Rain,Light Rain,290,2014-02-21 12:12:00
7:22 AM,48.9,43.0,80,29.85,10.0,West,21.9,33.4,0.01,Rain,Light Rain,280,2014-02-21 12:22:00
7:53 AM,45.0,39.0,80,29.88,7.0,West,20.7,35.7,0.01,Rain,Light Rain,280,2014-02-21 12:53:00
8:08 AM,44.1,39.0,82,29.95,2.5,West,20.7,28.8,0.00,Rain,Light Rain,280,2014-02-21 13:08:00
8:19 AM,43.0,39.0,86,29.97,2.5,West,16.1,24.2,0.00,Rain,Light Rain,270,2014-02-21 13:19:00
8:42 AM,43.0,36.0,76,29.99,10.0,WSW,15.0,23.0,0.01,,Overcast,250,2014-02-21 13:42:00
8:53 AM,43.0,33.1,68,29.96,10.0,WSW,17.3,26.5,0.01,,Overcast,250,2014-02-21 13:53:00
9:53 AM,43.0,33.1,68,29.98,10.0,SW,6.9,-,N/A,,Mostly Cloudy,230,2014-02-21 14:53:00
10:53 AM,44.1,30.9,60,29.97,10.0,SW,9.2,-,N/A,,Mostly Cloudy,220,2014-02-21 15:53:00
11:53 AM,48.9,30.9,50,29.94,10.0,West,12.7,-,N/A,,Scattered Clouds,270,2014-02-21 16:53:00
12:53 PM,50.0,28.0,43,29.92,10.0,West,11.5,21.9,N/A,,Partly Cloudy,270,2014-02-21 17:53:00
1:53 PM,52.0,28.9,41,29.90,10.0,SW,17.3,20.7,N/A,,Partly Cloudy,220,2014-02-21 18:53:00
2:53 PM,53.1,25.0,34,29.90,10.0,SW,15.0,-,N/A,,Partly Cloudy,230,2014-02-21 19:53:00
3:53 PM,54.0,21.0,28,29.92,10.0,WSW,15.0,24.2,N/A,,Partly Cloudy,240,2014-02-21 20:53:00
4:53 PM,52.0,19.9,28,29.94,10.0,WSW,16.1,25.3,N/A,,Partly Cloudy,240,2014-02-21 21:53:00
5:53 PM,50.0,23.0,35,29.97,10.0,SW,16.1,-,N/A,,Clear,230,2014-02-21 22:53:00
6:53 PM,45.0,25.0,46,30.00,10.0,SW,9.2,-,N/A,,Clear,220,2014-02-21 23:53:00
7:53 PM,42.1,24.1,49,30.01,10.0,SW,8.1,-,N/A,,Clear,220,2014-02-22 00:53:00
8:53 PM,39.9,24.1,53,30.04,10.0,SW,6.9,-,N/A,,Clear,230,2014-02-22 01:53:00
9:53 PM,39.0,24.1,55,30.05,10.0,SW,8.1,-,N/A,,Clear,220,2014-02-22 02:53:00
10:53 PM,37.9,23.0,55,30.06,10.0,Calm,Calm,-,N/A,,Clear,0,2014-02-22 03:53:00
11:53 PM,33.1,24.1,70,30.07,10.0,Calm,Calm,-,N/A,,Clear,0,2014-02-22 04:53:00